Weather in Idzhil

Russia / Republic of Kalmykia     47°25′46″N   45°32′00″E
temp.,
°C
wind,
m/s
gust,
m/s
humid.,
%
clouds,
%
prec.,
mm/h
press.,
hPa
HPBL,
m
14 june, mon
mon1400:00+21sse2377100 2.7 1011122
03:00+20nw3382100 3.1 101177
06:00+21n3479100 0.6 1012198
09:00+24nne2261100 1.1 1011705
12:00+20sse2187100 2.1 1013227
15:00+22ne3474100 4.1 1012499
18:00+22ne557099 0.0 1012624
21:00+19ne35885 0.0 1012175
15 june, tue
tue1500:00+18n34900 0.0 101193
03:00+18nne238772 0.0 101063
06:00+20n23785 0.0 1010182
09:00+24nw235995 0.0 1009738
12:00+28wnw344478 0.0 10091758
15:00+30wsw1335100 0.0 10082443
18:00+30sw233227 0.0 10082434
21:00+26nne35537 0.0 1009141
16 june, wed
wed1600:00+24ne33590 0.0 100949
03:00+23ne11635 0.0 101011
06:00+25n11530 0.0 101094
09:00+29nne11410 0.0 1011973
12:00+31nne11340 0.0 10112221
15:00+33nne21300 0.0 10102520
18:00+33nne43300 0.0 10102177
21:00+28ne611450 0.0 1011296
17 june, thu
thu1700:00+26ne611520 0.0 1011277
03:00+24ne612580 0.0 1011271
06:00+25ene711608 0.0 1012432
09:00+29ene884398 0.0 1012851
12:00+32ne77315 0.0 10121560
15:00+33ne7729100 0.0 10122035
18:00+32ne773697 0.0 10131884
21:00+27nne9145096 0.0 1014651
18 june, fri
fri1800:00+22ne1016470 0.0 1015553
03:00+20ne814520 0.0 1017568
06:00+20ne813540 0.0 1019670
09:00+23ne910380 0.0 10191165
12:00+27ne89290 0.0 10201715
15:00+27ne89280 0.0 10201998
18:00+26ne88310 0.0 10202083
21:00+23ne713390 0.0 1022494